Location: Nitra
(0.0000°N, 18.0833°E)
Time: 13:57:01
(UTC+01:00)

Cosmos 2297 Rocket - Pass Details

Date: 25 September 2022
Orbit: 839 x 844 km, 71.0° (Epoch: 26 November)

Event Time Altitude Azimuth Distance (km) Brightness Sun altitude
Rises 21:08:07 0° 331° (NNW) 3,386 5.6 -37.2°
Reaches altitude 10° 21:10:40 10° 325° (NW) 2,453 4.9 -37.8°
Enters shadow 21:12:17 19° 317° (NW) 1,903 4.3 -38.2°
